DW8785 Weather Reports


time (UTC)temp
C
wind
direction
speed
KPH
gust
KPH
rain 1hr
cm
rain 24hr
cm
rain mn
cm
humidity
%
barometer
mb
20260507181555 14 313 9.7 0.0 0.00 0.00 0.00 59 1011.0
20260507180053 14 359 9.7 0.0 0.00 0.00 0.00 60 1010.8
20260507174548 15 359 8.0 0.0 0.00 0.00 0.00 59 1010.5
20260507173042 15 281 8.0 0.0 0.00 0.00 0.00 59 1010.5
20260507171538 15 284 14.5 0.0 0.00 0.00 0.00 58 1010.4
20260507170035 15 285 12.9 0.0 0.00 0.00 0.00 59 1010.6
20260507164529 15 359 12.9 0.0 0.00 0.00 0.00 58 1010.2
20260507163025 15 280 14.5 0.0 0.00 0.00 0.00 59 1010.2
20260507161520 15 189 12.9 0.0 0.00 0.00 0.00 57 1010.3
20260507160017 15 359 14.5 0.0 0.00 0.00 0.00 57 1010.3
20260507154513 15 196 14.5 0.0 0.00 0.00 0.00 59 1010.4
20260507153007 15 357 12.9 0.0 0.00 0.00 0.00 59 1010.4
20260507151502 15 168 9.7 0.0 0.00 0.00 0.00 58 1010.6
20260507150100 15 196 16.1 0.0 0.00 0.00 0.00 60 1010.6
20260507144558 15 357 19.3 0.0 0.00 0.00 0.00 60 1010.6
20260507143049 15 196 20.9 0.0 0.00 0.00 0.00 63 1010.6
20260507141552 15 357 16.1 0.0 0.00 0.00 0.00 61 1010.5
20260507134537 15 189 24.1 0.0 0.00 0.00 0.00 58 1010.4
20260507133034 16 240 20.9 0.0 0.00 0.00 0.00 60 1010.3
20260507131528 15 186 25.7 0.0 0.00 0.00 0.00 60 1010.5
20260507130024 15 186 20.9 0.0 0.00 0.00 0.00 60 1010.5
20260507124523 15 184 20.9 0.0 0.00 0.00 0.00 61 1010.6
20260507123015 15 357 20.9 0.0 0.00 0.00 0.00 61 1010.5
20260507121510 15 357 22.5 0.0 0.00 0.00 0.00 67 1010.6
20260507120006 15 174 20.9 0.0 0.00 0.00 0.00 63 1010.9
20260507114502 15 169 17.7 0.0 0.00 0.00 0.00 60 1011.0
20260507113100 15 353 16.1 0.0 0.00 0.00 0.00 62 1011.0
20260507111553 15 271 16.1 0.0 0.00 0.00 0.00 60 1011.2
20260507110049 15 289 12.9 0.0 0.00 0.00 0.00 57 1010.9
20260507104545 15 357 14.5 0.0 0.00 0.00 0.00 56 1011.3
20260507103038 14 182 11.3 0.0 0.00 0.00 0.00 55 1011.3
20260507101539 13 280 16.1 0.0 0.00 0.00 0.00 57 1011.5
20260507100033 13 281 17.7 0.0 0.00 0.00 0.00 59 1011.3
20260507094526 13 280 12.9 0.0 0.00 0.00 0.00 61 1011.6
20260507093034 13 359 17.7 0.0 0.00 0.00 0.00 61 1011.5
20260507091516 13 359 16.1 0.0 0.00 0.00 0.00 66 1011.5
20260507090014 12 359 14.5 0.0 0.00 0.00 0.00 68 1011.4
20260507084506 12 281 19.3 0.0 0.00 0.00 0.00 69 1011.5
20260507083104 12 188 24.1 0.0 0.00 0.00 0.00 69 1011.4
20260507081556 12 357 22.5 0.0 0.00 0.00 0.00 71 1011.2
20260507080116 11 277 20.9 0.0 0.00 0.00 0.00 73 1011.0
20260507074556 11 280 17.7 0.0 0.00 0.00 0.00 71 1010.9
20260507073042 11 280 20.9 0.0 0.00 0.00 0.00 70 1010.9
20260507071553 11 357 20.9 0.0 0.00 0.00 0.00 71 1010.9
20260507070035 11 359 27.4 0.0 0.00 0.00 0.00 72 1010.4
20260507064527 10 281 25.7 0.0 0.00 0.00 0.00 73 1010.6
20260507063024 10 280 24.1 0.0 0.00 0.00 0.00 69 1010.5
20260507061518 10 277 24.1 0.0 0.00 0.00 0.00 69 1010.5
20260507060018 10 281 20.9 0.0 0.00 0.00 0.00 67 1010.5
20260507054509 10 359 20.9 0.0 0.00 0.00 0.00 70 1010.4
20260507053003 10 357 25.7 0.0 0.00 0.00 0.00 72 1010.2
20260507051601 10 359 32.2 0.0 0.00 0.00 0.00 69 1010.0
20260507050055 9 357 27.4 0.0 0.00 0.00 0.00 77 1010.1
20260507044551 8 281 22.5 0.0 0.00 0.00 0.00 80 1010.2
20260507043044 9 277 25.7 0.0 0.00 0.00 0.00 76 1010.0
20260507041540 9 288 16.1 0.0 0.00 0.00 0.00 74 1009.9
20260507040040 9 261 12.9 0.0 0.00 0.00 0.00 74 1010.0
20260507034532 9 357 12.9 0.0 0.00 0.00 0.00 75 1010.0
20260507033027 9 285 14.5 0.0 0.00 0.00 0.00 74 1009.7
20260507031523 9 299 8.0 0.0 0.00 0.00 0.00 74 1009.7
20260507030019 9 299 9.7 0.0 0.00 0.00 0.00 77 1009.3
20260507024515 9 315 4.8 0.0 0.00 0.00 0.00 77 1009.2
20260507023009 10 0 3.2 0.0 0.00 0.00 0.00 76 1009.2
20260507021511 10 357 19.3 0.0 0.00 0.00 0.00 74 1009.1
20260507020002 10 281 25.7 0.0 0.00 0.00 0.00 75 1009.1
20260507014608 10 199 22.5 0.0 0.00 0.00 0.00 80 1009.2
20260507013053 9 188 30.6 0.0 0.00 0.00 0.00 83 1009.1
20260507011600 9 278 29.0 0.0 0.00 0.00 0.00 83 1009.1
20260507010045 10 280 29.0 0.0 0.00 0.00 0.00 81 1008.3
20260507004541 10 282 27.4 0.0 0.00 0.00 0.00 80 1008.7
20260507003035 10 356 29.0 0.0 0.00 0.00 0.00 81 1008.8
20260507001541 9 356 22.5 0.0 0.00 0.00 0.00 84 1009.2
20260507000027 9 285 24.1 0.0 0.00 0.00 0.00 84 1009.4
20260506234530 10 357 29.0 0.0 0.00 0.00 0.00 77 1009.3
20260506233018 10 357 29.0 0.0 0.00 0.00 0.00 76 1009.6
20260506231514 10 275 22.5 0.0 0.00 0.00 0.00 80 1009.3
20260506230011 10 302 25.7 0.0 0.00 0.00 0.00 80 1009.5
20260506224507 9 282 22.5 0.0 0.00 0.00 0.00 88 1009.8
20260506223101 9 353 19.3 0.0 0.00 0.00 0.00 89 1009.7
20260506221556 8 198 17.7 0.0 0.00 0.00 0.00 96 1009.8
20260506214548 8 353 16.1 0.0 0.00 0.00 5.44 98 1009.8
20260506213045 9 188 14.5 0.0 0.00 0.00 5.44 97 1009.9
20260506211540 9 186 12.9 0.0 0.00 0.00 5.44 96 1010.1
20260506210036 10 189 12.9 0.0 0.00 0.00 5.44 93 1010.0
20260506204534 10 356 17.7 0.0 0.00 0.00 5.44 89 1009.6
20260506203034 10 356 22.5 0.0 0.00 0.00 5.44 84 1009.6
20260506201524 10 354 20.9 0.0 0.00 0.00 5.44 87 1009.5
20260506200024 10 354 20.9 0.0 0.00 0.00 5.44 88 1009.2
20260506194516 11 354 24.1 0.0 0.00 0.00 5.44 85 1009.1
20260506193010 11 189 24.1 0.0 0.00 0.00 5.44 84 1008.6
20260506191507 11 353 25.7 0.0 0.00 0.00 5.44 83 1008.3
20260506190004 11 352 20.9 0.0 0.00 0.00 5.44 85 1008.1
20260506184602 11 353 17.7 0.0 0.00 0.00 5.44 87 1008.1
20260506183059 11 352 16.1 0.0 0.00 0.00 5.44 87 1008.0